This is the latest recevied weather packets stored in our database for station/object KN4MGS. If no packets are shown the sender has not sent any weather packets the latest 10 day(s).
| Time | Temp. | Humidity | Pressure | Rain* | Wind** | Luminosity | Snow |
|---|---|---|---|---|---|---|---|
| 1778014256 | 27.22° C | 44% | 1017.5 hPa | 0 mm | - | 556 W/m² | - |
| 1778013953 | 27.22° C | 42% | 1017.5 hPa | 0 mm | - | 589 W/m² | - |
| 1778013650 | 26.67° C | 43% | 1017.5 hPa | 0 mm | - | 425 W/m² | - |
| 1778013347 | 26.67° C | 43% | 1017.6 hPa | 0 mm | - | 442 W/m² | - |
| 1778013044 | 26.67° C | 42% | 1017.7 hPa | 0 mm | - | 349 W/m² | - |
| 1778012740 | 27.22° C | 44% | 1017.5 hPa | 0 mm | - | 242 W/m² | - |
| 1778012436 | 26.67° C | 44% | 1017.6 hPa | 0 mm | - | 419 W/m² | - |
| 1778012133 | 26.67° C | 42% | 1018 hPa | 0 mm | - | 403 W/m² | - |
| 1778011831 | 27.22° C | 42% | 1017.9 hPa | 0 mm | - | 304 W/m² | - |
| 1778011528 | 26.67° C | 42% | 1017.8 hPa | 0 mm | - | 524 W/m² | - |
| 1778011225 | 26.67° C | 43% | 1017.7 hPa | 0 mm | - | 502 W/m² | - |
| 1778010921 | 26.67° C | 42% | 1017.9 hPa | 0 mm | - | 229 W/m² | - |
| 1778010618 | 27.78° C | 40% | 1017.7 hPa | 0 mm | - | 511 W/m² | - |
| 1778010316 | 27.78° C | 42% | 1018 hPa | 0 mm | - | 657 W/m² | - |
| 1778010011 | 26.67° C | 43% | 1018.3 hPa | 0 mm | - | 677 W/m² | - |
| 1778009708 | 27.22° C | 44% | 1018.2 hPa | 0 mm | - | 238 W/m² | - |
| 1778009405 | 26.67° C | 43% | 1018.4 hPa | 0 mm | - | 710 W/m² | - |
| 1778009104 | 27.22° C | 43% | 1018.5 hPa | 0 mm | - | 727 W/m² | - |
| 1778008801 | 27.22° C | 43% | 1018.7 hPa | 0 mm | - | 786 W/m² | - |
| 1778008499 | 27.22° C | 44% | 1018.5 hPa | 0 mm | - | 652 W/m² | - |
| 1778008197 | 26.67° C | 44% | 1018.8 hPa | 0 mm | - | 677 W/m² | - |
| 1778007891 | 26.67° C | 44% | 1019 hPa | 0 mm | - | 773 W/m² | - |
| 1778007587 | 26.11° C | 45% | 1018.9 hPa | 0 mm | - | 757 W/m² | - |
| 1778007284 | 26.67° C | 44% | 1018.9 hPa | 0 mm | - | 280 W/m² | - |
| 1778006981 | 27.22° C | 41% | 1018.9 hPa | 0 mm | - | 669 W/m² | - |
* Rain latest hour (hover to see other rain measurements)
** Current wind speed in m/s (hover to see current wind gust speed)